• MPC Preparation (Info)

  • MPEC 2016-N66 : 2016 NK22

    The following Minor Planet Electronic Circular may be linked-to from your own Web pages, but must not otherwise be redistributed electronically.

    A form allowing access to any MPEC is at the bottom of this page.


    Read MPEC 2016-N65 Read MPEC 2016-N67


    M.P.E.C. 2016-N66                                Issued 2016 July 10, 17:07 UT
    
         The Minor Planet Electronic Circulars contain information on unusual
             minor planets and routine data on comets.  They are published
        on behalf of Division F of the International Astronomical Union by the
              Minor Planet Center, Smithsonian Astrophysical Observatory,
                              Cambridge, MA 02138, U.S.A.
    
                 Prepared using the Tamkin Foundation Computer Network
    
                                  MPC@CFA.HARVARD.EDU
                URL https://www.minorplanetcenter.net/    ISSN 1523-6714
    
                                       2016 NK22
    
    Observations:
         K16N22K  C2016 07 09.15786 17 06 21.19 -04 12 03.1          20.4 VqEN066G96
         K16N22K  C2016 07 09.16365 17 06 23.99 -04 11 03.2          20.9 VqEN066G96
         K16N22K  C2016 07 09.16943 17 06 26.76 -04 10 03.4          20.1 VqEN066G96
         K16N22K  C2016 07 09.17522 17 06 29.52 -04 09 03.6          20.3 VqEN066G96
         K16N22K* C2016 07 09.20103 17 06 41.78 -04 04 28.9          19.4 VqEN066G96
         K16N22K  C2016 07 09.21376 17 06 47.85 -04 02 11.4          20.1 VqEN066G96
         K16N22K  C2016 07 09.22013 17 06 50.95 -04 01 02.3          20.1 VqEN066G96
         K16N22K KC2016 07 09.94920 17 20 20.24 -00 55 01.6          19.9 RoEN066461
         K16N22K KC2016 07 09.95197 17 20 23.84 -00 54 00.3          19.4 RoEN066461
         K16N22K  C2016 07 10.20395 17 29 16.11 +01 00 41.6          19.6 VqEN066G96
         K16N22K  C2016 07 10.21017 17 29 27.05 +01 03 55.6          18.8 VqEN066G96
         K16N22K  C2016 07 10.22259 17 29 48.99 +01 10 25.8          19.1 VqEN066G96
    
    Observer details:
    461 University of Szeged, Piszkesteto Stn. (Konkoly).  Observer J. Vinko.
        Measurer K. Sarneczky.  0.60-m Schmidt + CCD.
    G96 Mt. Lemmon Survey.  Observer D. C. Fuls.  Measurers E. J. Christensen,
        D. C. Fuls, A. R. Gibbs, A. D. Grauer, J. A. Johnson, R. A. Kowalski,
        S. M. Larson, G. J. Leonard, R. G. Matheny, R. L. Seaman, F. C. Shelly.
        1.5-m reflector + 10K CCD.
    
    Orbital elements:
    2016 NK22                                                Earth MOID = 0.0011 AU
    Epoch 2016 July 31.0 TT = JDT 2457600.5                 MPC
    M 354.28069              (2000.0)            P               Q
    n   0.53628500     Peri.  213.44651     +0.81403816     +0.57912582
    a   1.5003950      Node   111.10290     -0.52195383     +0.76281674
    e   0.3543417      Incl.    2.71659     -0.25476670     +0.28761764
    P   1.84           H   28.9           G   0.15           U   5
    Residuals in seconds of arc
    160709 G96  0.4+  0.1-    160709 G96  0.2-  0.4+    160709 461  0.2-  0.4+
    160709 G96  0.6+  0.1+    160709 G96  0.4-  0.3+    160710 G96  0.2-  1.8-
    160709 G96  0.5+  0.0     160709 G96  0.3+  0.2-    160710 G96  1.0+  0.0
    160709 G96  0.4+  0.6-    160709 461  0.3+  0.7+    160710 G96  1.3+  1.5+
    
    Ephemeris:
    2016 NK22                a,e,i = 1.50, 0.35, 3                   q = 0.9687
    Date    TT    R. A. (2000) Decl.     Delta      r     Elong.  Phase     V
    2016 06 10    16 46 03.5 -12 07 34   0.1343  1.1467   167.3    11.2    25.5
    ...
    2016 06 25    16 42 21.4 -10 37 25   0.06737 1.0776   154.3    24.1    24.3
    ...
    2016 07 03    16 44 17.7 -09 19 06   0.03449 1.0459   147.2    31.8    23.0
    ...
    2016 07 09    17 04 07.0 -04 29 33   0.01044 1.0252   143.9    35.7    20.5
    2016 07 10    17 22 13.8 -00 19 15   0.0065151.0220   144.3    35.4    19.5
    2016 07 11    18 31 48.4 +15 04 13   0.0028541.0188   140.9    39.0    17.8
    ...
    2016 07 17    04 30 13.7 +12 03 04   0.02199 1.0016    47.6   131.4    26.5
    ...
    2016 07 25    04 41 22.0 +10 23 07   0.05418 0.9840    52.9   124.5    27.7
    ...
    2016 08 09    04 54 10.6 +10 22 24   0.1141  0.9689    63.8   110.1    28.3
    
    A. U. Tomatic                (C) Copyright 2016 MPC           M.P.E.C. 2016-N66
    

    Read MPEC 2016-N65 Read MPEC 2016-N67


    MPEC number:

    Enter an MPEC number in one of the following forms:

    • 1997-B01 (the full form)
    • J97B01 (the packed version of the full form)
    • B01 (the abbreviated form)